sat.trackr.live / text

‹ back to catalog

STARLINK-4438

NORAD 53682 · 2022-105AL

PAYLOAD ACTIVE UNKNOWN

§ Identity

Operator
Country
US
Launch date
2022-08-31
Launch site
AFWTR
Launch vehicle
Mass (kg)
RCS (m²)

Purposes: comms

External: N2YO · Heavens-Above · Gunter

§ Orbital elements

Epoch: 2026-09-20T14:01:18.637536Z

Period
93.91 min
Inclination
97.2842°
Eccentricity
0.0001816
Mean motion
15.33438325 rev/d
Perigee alt
464.3 km
Apogee alt
466.8 km
Semi-major
6,843.7 km
B*
1.6099e-5
RAAN
140.2866°
Arg perigee
90.5440°
Mean anomaly
269.6011°
Rev number
22,275

§ Raw data

STARLINK-44381 53682U 22105AL  26263.58424349  .00000445  00000+0  16099-4 0  99932 53682  97.2842 140.2866 0001816  90.5440 269.6011 15.33438325222753

JSON: /api/v1/satellites/53682 · /tle

For live sub-satellite position, see the globe view (requires WebGL).

§ Visibility from observer

Set your observer location to see the next 7 days of passes ≥ 10°. The values pass through the URL so the page stays shareable.

No JS? Fill the form by hand. The geolocation button needs JavaScript.